Location: Kaarina
(60.4167°N, 22.4167°E)
Time: 13:52:49
(UTC+03:00)

Cosmos 1898 Rocket - Pass Details

Date: 24 August 2019
Orbit: 755 x 783 km, 74.0° (Epoch: 18 September)

Event Time Altitude Azimuth Distance (km) Brightness Sun altitude
Rises 23:08:30 0° 218° (SW) 3,237 6.6 -13.1°
Reaches altitude 10° 23:10:53 10° 221° (SW) 2,310 5.8 -13.2°
Maximum altitude 23:16:08 73° 306° (NW) 803 3.7 -13.6°
Drops below altitude 10° 23:21:22 10° 32° (NNE) 2,305 6.3 -14.0°
Sets 23:23:45 0° 34° (NE) 3,231 7.1 -14.1°
